Location: Alulod
(14.2076°N, 120.8898°E)
Time: 03:23:08
(UTC+00:00)

USA 238 DEB - Pass Details

Date: 14 March 2026
Orbit: 883 x 1328 km, 63.4° (Epoch: 10 January)

Event Time Altitude Azimuth Distance (km) Brightness Sun altitude
Rises 10:56:58 0° 207° (SSW) 3,480 6.8 -13.0°
Reaches altitude 10° 10:59:27 10° 208° (SSW) 2,533 6.0 -13.6°
Maximum altitude 11:05:15 79° 295° (WNW) 910 3.4 -15.0°
Drops below altitude 10° 11:11:18 10° 21° (NNE) 2,630 5.6 -16.5°
Sets 11:13:54 0° 23° (NNE) 3,622 6.3 -17.1°
